Zurück zum Katalog

STARLINK-35128

AktivKommunikationVLEO
NORAD 65628·PAYLOAD·🇺🇸 United States

Gestartet Sep 18, 2025 von Cape Canaveral Space Force Station

Loading…

Nächste Überflüge (nächste 24 Stunden)

TLE

AktuellSource: CelesTrak SupGP

Epoche: Sep 15, 2026, 03:01 UTC

1 65628C 25210G   26258.12618056  .00030560  00000+0  90295-3 0  2588
2 65628  53.1565 142.9183 0001295  82.0756 314.1406 15.34373615    15

Verfolge STARLINK-35128 in Echtzeit mit AllMySat

Download on the App Store